Regional Weather Roundup
Issued by NWS

Home | Current Version | Previous Version | Graphics & Text | Print | Product List | Glossary On
Versions: 1 2 3 4 5 6 7 8 9 10 11 12 13 14 15 16 17 18 19 20 21 22 23 24 25 26 27 28 29 30 31 32 33 34 35 36 37 38 39 40 41 42 43 44 45 46 47 48 49 50
000
ASUS43 KLOT 240710
RWRIL

ILLINOIS REGIONAL WEATHER ROUNDUP
NATIONAL WEATHER SERVICE CHICAGO/ROMEOVILLE IL
200 AM CDT THU APR 24 2014

NOTE: "FAIR" INDICATES FEW OR NO CLOUDS BELOW 12,000 FEET WITH NO
SIGNIFICANT WEATHER AND/OR OBSTRUCTIONS TO VISIBILITY.

* THESE STATIONS ARE NOT UNDER NWS QUALITY CONTROL. THEY ALSO MAY NOT
  REPORT WEATHER SUCH AS PRECIPITATION OR FOG.

ILZ001-002-007-009-015-016-024-240800-
NORTHWEST ILLINOIS

CITY           SKY/WX    TMP DP  RH WIND       PRES   REMARKS
MOLINE         CLOUDY    46  37  71 E15       29.95S
STERLING*      CLOUDY    43  34  70 E15       30.01S
SAVANNA*       CLOUDY    43  35  74 E14G22    30.00R
$$

ILZ003-004-008-010-011-017-018-240800-
NORTH CENTRAL ILLINOIS

CITY           SKY/WX    TMP DP  RH WIND       PRES   REMARKS
ROCKFORD       CLOUDY    39  29  67 E12       30.08R WCI  32
FREEPORT*      CLOUDY    38  33  81 E13       30.06S WCI  30
ROCHELLE*      CLOUDY    39  32  76 E12       30.05S WCI  32
DE KALB*       CLOUDY    37  31  80 E10       30.05S WCI  29
PERU*          CLOUDY    43  36  74 E12       30.01F
$$

ILZ005-006-012>014-019>023-240800-
NORTHEAST ILLINOIS

CITY           SKY/WX    TMP DP  RH WIND       PRES   REMARKS
CHICAGO-OHARE  LGT RAIN  39  30  70 NE10      30.07F WCI  32
CHICAGO-MIDWAY LGT RAIN  41  35  79 N8        30.07S
AURORA         CLOUDY    40  32  73 NE13      30.05S
LANSING*       LGT RAIN  42  37  81 N6        30.07R
JOLIET*        CLOUDY    41  35  79 NE10      30.05F
WAUKEGAN       CLOUDY    36  31  82 CALM      30.08S
DUPAGE AIRPORT CLOUDY    38  33  82 NE8       30.06F WCI  32
KANKAKEE*      CLOUDY    42  38  88 E5        30.04F
WHEELING       LGT RAIN  38  31  76 E5        30.08F WCI  34
MORRIS*        CLOUDY    42  35  75 NE3       30.04S
ROMEOVILLE*    CLOUDY    40  35  82 NE9       30.05S
NORTHERLY ISL    N/A     40  32  73 N9          N/A
$$

LMZ740>746-240800-
SOUTHERN LAKE MICHIGAN

STATION/POSITION SKY/WX   TEMP    WIND        PRES    VSBY  WAVE
                          AIR SEA DIR/SP/G                  HT/PER
                          (F)     (DEG/KT/KT) (MB)    (MI)  (FT/S)
WAUKEGAN HARBOR            37     100/  5/  6 1020.0F
HARRISON CRIB              39     350/  8/  9   N/A
BURNHAM HARBOR             40      20/  8/  9   N/A
CALUMET HARBOR             41     350/  8/ 10 1019.1F
MICHIGAN CITY              46      50/  4/  5   N/A
$$

ILZ025>027-034>036-040-047-049-050-058-095>099-240800-
WEST-CENTRAL ILLINOIS

CITY           SKY/WX    TMP DP  RH WIND       PRES   REMARKS
QUINCY         MOCLDY    52  34  50 SE13      29.86F
GALESBURG*     CLOUDY    49  38  68 E8        29.92F
MACOMB*        CLOUDY    52  33  48 SE9       29.93F
JACKSONVILLE*  MOCLDY    52  33  48 SE12      29.91F
PITTSFIELD*    MOCLDY    54  34  46 SE14      29.89F
$$

ILZ028>032-037-038-041>044-048-051>054-059>061-240800-
CENTRAL ILLINOIS

CITY           SKY/WX    TMP DP  RH WIND       PRES   REMARKS
PONTIAC        CLOUDY    46  39  76 E16       29.98F
BLOOMINGTON    CLOUDY    48  35  60 SE9       29.98F
DECATUR        CLOUDY    52  33  48 SE13      29.95F
PEORIA         CLOUDY    52  37  56 E8        29.96F
LACON*         CLOUDY    44  37  76 E12       29.98S
LINCOLN*       MOCLDY    50  34  54 E3        29.95F
SPRINGFIELD    MOCLDY    54  31  41 SE12      29.93F
TAYLORVILLE    CLOUDY    52  34  50 SE12      29.94F
$$

ILZ033-039-045-046-055>057-062-063-240800-
EAST-CENTRAL ILLINOIS

CITY           SKY/WX    TMP DP  RH WIND       PRES   REMARKS
CHAMPAIGN      CLOUDY    51  37  58 SE9       29.98F
RANTOUL*       CLOUDY    53  39  59 CALM      30.01R
MATTOON        CLOUDY    52  32  46 SE13      29.97F
PARIS*         CLOUDY    52  37  55 SE5       30.00F
$$

ILZ079-100>102-240800-
SOUTHWEST ILLINOIS

CITY           SKY/WX    TMP DP  RH WIND       PRES   REMARKS
ALTON          CLOUDY    54  35  48 E12       29.92F
BELLEVILLE     CLOUDY    50  38  63 E7        29.92F
CAHOKIA*       CLOUDY    53  36  52 SE7       29.91F
SPARTA*        MOCLDY    52  36  54 SE9       29.94F
$$

ILZ064>066-069>071-074>076-080>082-084>086-088>090-092>094-240800-
SOUTH-CENTRAL ILLINOIS

CITY           SKY/WX    TMP DP  RH WIND       PRES   REMARKS
CARBONDALE     PTCLDY    50  37  61 SE5       29.95F
CAIRO*         CLEAR     55  38  51 E3        29.95F
MARION         PTCLDY    54  36  50 SE3       29.96F
MT. VERNON     MOCLDY    52  30  43 E6        29.97F
CENTRALIA*     MOCLDY    52  34  49 SE6       29.95F
SALEM*         MOCLDY    54  35  48 SE3       29.96F
METROPOLIS*    CLEAR     51  33  49 E3        29.95F
$$

ILZ067-068-072-073-078-083-087-091-240800-
SOUTHEAST ILLINOIS

CITY           SKY/WX    TMP DP  RH WIND       PRES   REMARKS
FLORA*         PTCLDY    48  37  64 E7        29.98F
FAIRFIELD*     PTCLDY    52  39  62 CALM      29.98F
HARRISBURG*    PTCLDY    50  40  68 SE6       29.98F
ROBINSON*      PTCLDY    50  39  65 E5        30.01F
CARMI*         CLEAR     51  42  71 SE7       29.98F
$$

ABBREVIATIONS USED IN REMARKS
   TC - TEMPERATURE IN CELSIUS
  WCI - WIND CHILL INDEX
   HX - HEAT INDEX
  VSB - VISIBILITY
$$




USA.gov is the U.S. government's official web portal to all federal, state and local government web resources and services.